Lake Louise, Canada 16 day weather forecast

Slopes altitude range 1630 m - 2730m

Number of lifts: 26 Pistes: 100km

In some cases the lift and piste totals shown are for the ski domain (e.g. Three Valleys) rather than individual resort (e.g. Courchevel)

Overview

The 16 day weather forecast is fully updated 4 times every day.

    • Tue 19 MAR 2019
    • Tue 19
    • -8C -7C
    • Wed 20 MAR 2019
    • Wed 20
    • -7C -6C
    • Thu 21 MAR 2019
    • Thu 21
    • -6C -5C
    • Fri 22 MAR 2019
    • Fri 22
    • -6C -6C
    • Sat 23 MAR 2019
    • Sat 23
    • -6C -4C
    • Sun 24 MAR 2019
    • Sun 24
    • -4C -3C
    • Mon 25 MAR 2019
    • Mon 25
    • -6C -4C
    • Tue 26 MAR 2019
    • Tue 26
    • -3C -2C
    • Wed 27 MAR 2019
    • Wed 27
    • -4C -3C
    • Thu 28 MAR 2019
    • Thu 28
    • -4C -2C
    • Fri 29 MAR 2019
    • Fri 29
    • -1C 7C
    • Sat 30 MAR 2019
    • Sat 30
    • 0C 4C
    • Sun 31 MAR 2019
    • Sun 31
    • -4C 2C
    • Mon 01 APR 2019
    • Mon 01
    • -3C 1C
    • Tue 02 APR 2019
    • Tue 02
    • -4C 2C
    • Wed 03 APR 2019
    • Wed 03
    • -7C -2C

Date:

Time Type 0°C level Temp Chill Snow Cloud Speed Gust Dir Press
3:00 1194m -7°C -7_2 0cm 30% 2mph 2mph 1028mB
6:00 1126m -8°C -8_2 0cm 15% 2mph 2mph 1029mB
9:00 1081m -8°C -8_2 0cm 0% 2mph 2mph 1030mB
12:00 1059m -7°C -7_2 0cm 0% 2mph 2mph 1030mB
15:00 1495m -5°C -5_2 0cm 0% 2mph 3mph 1029mB
18:00 2990m 1°C 1_3 0cm 0% 3mph 3mph 1025mB
21:00 3075m 1°C 1_3 0cm 0% 3mph 3mph 1023mB
0:00 3116m 1°C 1_3 0cm 0% 3mph 3mph 1022mB
3:00 1338m -6°C -6_2 0cm 0% 2mph 2mph 1025mB
6:00 1252m -7°C -7_2 0cm 0% 2mph 3mph 1025mB
9:00 1280m -7°C -7_3 0cm 0% 3mph 4mph 1025mB
12:00 1224m -6°C -6_3 0cm 0% 3mph 4mph 1024mB
15:00 1575m -5°C -5_3 0cm 0% 3mph 3mph 1023mB
18:00 3404m 1°C 1_3 0cm 0% 3mph 3mph 1019mB
21:00 3385m 1°C 1_3 0cm 0% 3mph 3mph 1017mB
0:00 3350m 1°C 1_2 0cm 0% 2mph 2mph 1016mB
3:00 1627m -4°C -4_2 0cm 0% 2mph 2mph 1018mB
6:00 1543m -5°C -5_2 0cm 0% 2mph 3mph 1020mB
9:00 1443m -6°C -6_1 0cm 0% 1mph 2mph 1020mB
12:00 1340m -5°C -5_1 0cm 0% 1mph 2mph 1020mB
15:00 1695m -4°C -4_1 0cm 0% 1mph 1mph 1019mB
18:00 3062m 2°C 2_3 0cm 0% 3mph 3mph 1016mB
21:00 3036m 2°C 2_3 0cm 0% 3mph 4mph 1014mB
0:00 3027m 2°C 2_3 0cm 0% 3mph 3mph 1013mB
3:00 1542m -5°C -5_2 0cm 0% 2mph 2mph 1016mB
6:00 1411m -6°C -6_2 0cm 5% 2mph 2mph 1016mB
9:00 1384m -6°C -6_2 0cm 66% 2mph 3mph 1016mB
12:00 1316m -6°C -6_3 0cm 58% 3mph 3mph 1016mB
15:00 1629m -4°C -4_3 0cm 9% 3mph 3mph 1016mB
18:00 2805m 2°C 2_1 0cm 4% 1mph 1mph 1013mB
21:00 2714m 2°C 2_1 0cm 0% 1mph 1mph 1011mB
0:00 2767m 2°C 2_1 0cm 0% 1mph 1mph 1011mB
3:00 1785m -3°C -3_1 0cm 1% 1mph 1mph 1014mB
6:00 1616m -4°C -4_0 0cm 1% 0mph 1mph 1015mB
9:00 1499m -5°C -5_2 0cm 42% 2mph 2mph 1015mB
12:00 1371m -4°C -4_2 0cm 38% 2mph 3mph 1016mB
15:00 1564m -5°C -5_3 0cm 34% 3mph 3mph 1017mB
18:00 2325m 0°C 0_4 0cm 47% 4mph 5mph 1014mB
21:00 2475m 0°C 0_4 0cm 95% 4mph 4mph 1013mB
0:00 2534m 0°C 0_4 0cm 87% 4mph 4mph 1014mB
3:00 1914m -3°C -3_3 0cm 37% 3mph 3mph 1018mB
6:00 1909m -3°C -3_4 0cm 66% 4mph 5mph 1020mB
9:00 1724m -4°C -4_6 0cm 64% 6mph 6mph 1022mB
12:00 1692m -3°C -3_5 0cm 43% 5mph 6mph 1023mB
15:00 1801m -3°C -3_4 1cm 36% 4mph 5mph 1024mB
18:00 2290m 0°C 0_5 1cm 48% 5mph 6mph 1023mB
21:00 2394m 0°C 0_5 1cm 90% 5mph 6mph 1021mB
0:00 2402m 0°C 0_5 2cm 92% 5mph 7mph 1022mB
3:00 1904m -3°C -3_4 1cm 95% 4mph 5mph 1025mB
6:00 1679m -4°C -4_3 1cm 88% 3mph 4mph 1026mB
9:00 1470m -5°C -5_2 0cm 63% 2mph 2mph 1027mB
12:00 1478m -4°C -4_3 0cm 74% 3mph 3mph 1027mB
15:00 1578m -5°C -5_3 0cm 74% 3mph 3mph 1027mB
18:00 2165m -1°C -1_5 0cm 86% 5mph 6mph 1024mB
21:00 2315m -1°C -1_5 1cm 99% 5mph 7mph 1021mB
0:00 2365m -1°C -1_5 1cm 97% 5mph 6mph 1019mB
3:00 1753m -4°C -4_3 0cm 4% 3mph 4mph 1021mB
6:00 1626m -4°C -4_3 0cm 28% 3mph 3mph 1022mB
9:00 1672m -3°C -3_3 0cm 98% 3mph 4mph 1022mB
12:00 1682m -2°C -2_1 0cm 98% 1mph 1mph 1023mB
15:00 1828m -2°C -2_2 1cm 100% 2mph 3mph 1022mB
18:00 2112m 0°C 0_4 1cm 100% 4mph 4mph 1020mB
21:00 2178m 0°C 0_4 1cm 100% 4mph 4mph 1018mB
0:00 2228m 0°C 0_4 1cm 100% 4mph 4mph 1016mB
3:00 1764m -2°C -2_2 1cm 98% 2mph 3mph 1017mB
6:00 1676m -3°C -3_3 0cm 95% 3mph 4mph 1018mB
9:00 1622m -3°C -3_2 0cm 86% 2mph 3mph 1018mB
12:00 1504m -3°C -3_1 0cm 89% 1mph 1mph 1018mB
15:00 1783m -2°C -2_2 0cm 96% 2mph 2mph 1018mB
18:00 2124m 1°C 1_5 1cm 97% 5mph 6mph 1016mB
21:00 2159m 0°C 0_5 1cm 100% 5mph 7mph 1015mB
0:00 2132m 0°C 0_6 1cm 100% 6mph 8mph 1014mB
3:00 1856m -2°C -2_4 1cm 99% 4mph 7mph 1016mB
6:00 1760m -2°C -2_4 1cm 99% 4mph 5mph 1018mB
9:00 1709m -3°C -3_4 1cm 99% 4mph 6mph 1018mB
12:00 1451m -2°C -2_4 1cm 97% 4mph 5mph 1018mB
15:00 1643m -3°C -3_5 0cm 52% 5mph 7mph 1017mB
18:00 2225m 2°C 2_6 0cm 59% 6mph 8mph 1013mB
Morning 0mm 0 1800m -1°C -1_6 0cm 21% 6mph 7mph 1014mB
Afternoon 0mm 0 2529m 7°C 7_4 0cm 39% 4mph 5mph 1011mB
Morning 0mm 0.8125 1963m 0°C 0_5 6cm 68% 5mph 6mph 1011mB
Afternoon 0mm 0.1875 2257m 4°C 4_4 2cm 95% 4mph 6mph 1007mB
Morning 0mm 4.0625 1753m -1°C -1_3 0cm 88% 3mph 3mph 1008mB
Afternoon 0.333333mm 0 2063m 2°C 2_5 0cm 50% 5mph 6mph 1007mB
Morning 0mm 0.125 1623m -2°C -2_4 1cm 84% 4mph 5mph 1010mB
Afternoon 0mm 0.0625 1971m 1°C 1_5 1cm 96% 5mph 6mph 1010mB
Morning 0mm 0.125 1740m -1°C -1_5 1cm 99% 5mph 7mph 1005mB
Afternoon 0mm 0 2061m 2°C 2_9 0cm 89% 9mph 14mph 994mB
Morning 0mm 1.1875 1147m -5°C -5_7 10cm 100% 7mph 10mph 992mB
Afternoon 0mm 0.0625 1590m -2°C -2_4 0cm 100% 4mph 5mph 996mB

16 day outlook at a glance

Forecast issued: 18/03/2019 23:31:23

Chat

Your comments and questions. In a resort? Let us know what it's like!


Characters left 250

For terms and conditions see Readers Comments on the Cookie and privacy policy page.